Content
SEND FEEDBACK

Daily
Averages
Monthly
Summary
United States of America

DERBY, KANSAS


Home > North America > United States > Kansas
Elevation: 1371 feet     Latitude: 37 37N     Longitude: 097 16W

WEATHER
 
SELECT A DAY
Number of Records: 382,283;   Date Range: 1/3/95 - 7/20/14
 
SHARE

PRINT THIS DATA

[ ← Previous Day ]
WEATHER ALMANAC - JANUARY 31, 2013
[ Next Day → ]
[ °C ]   °F
Weather ElementAverageHighLow
Temperature25.5 °F31.1 °F (10:55 am)16.3 °F (8:55 pm)
Dewpoint16.8 °F23 °F (12:12 pm)3.4 °F (6:55 pm)
Humidity70.2 %86 % (12:23 pm)44 % (4:55 pm)
Barometer30.26 in30.50 in (8:55 pm)30.01 in (3:55 am)
Wind Speed14.9 mph25.3 mph (12:06 pm)
Wind Gust29.9 mph (12:06 pm)
Weather ElementAverage
Visibility6.6 mi
Wind DirectionENE (69.2 °)

Weather ElementTotal
Precipitation---
Heating Degree Days41.3 (Base 65)
Averaged from 39 records on January 31, 2013
WEATHER CONDITIONS BREAKOUT
WIND DIRECTION BREAKOUT
WEATHER BY HOUR - JANUARY 31, 2013
[ °C ]   °F
Local TimeTemperatureDewpointHumidityBarometerVisibilityWind DirectionWind SpeedGust SpeedPrecipitationEventsConditions
1:55 AM22.8 °F18.5 °F83 %30.02 in10.0 miSSW (210°)11.5 mphClear
2:55 AM24.1 °F18.1 °F78 %30.02 in10.0 miSSW (200°)8.1 mphClear
3:55 AM23.9 °F16.7 °F74 %30.01 in10.0 miSW (220°)3.5 mphClear
4:55 AM25.5 °F16.3 °F68 %30.01 in10.0 miWest (260°)4.6 mphClear
5:55 AM25.3 °F17.2 °F71 %30.03 in10.0 miWest (280°)6.9 mphClear
6:55 AM26.1 °F18.0 °F71 %30.04 in10.0 miCalmScattered Clouds
7:55 AM25.3 °F20.3 °F81 %30.07 in10.0 miNNW (330°)6.9 mphMostly Cloudy
8:55 AM29.8 °F21.7 °F72 %30.11 in10.0 miNorth (360°)10.4 mphClear
9:55 AM30.2 °F22.1 °F72 %30.17 in10.0 miNNE (20°)10.4 mphClear
10:55 AM31.1 °F21.0 °F66 %30.23 in10.0 miNNE (20°)15.0 mphClear
11:32 AM30.2 °F17.6 °F60 %30.26 in10.0 miNNE (30°)17.3 mphClear
11:48 AM28.4 °F19.4 °F69 %30.27 in2.0 miNNE (20°)21.9 mph25.3 mphSnowLight Snow
11:49 AM28.4 °F21.2 °F74 %30.27 in1.8 miNNE (20°)20.7 mph25.3 mphSnowLight Snow
11:55 AM28.0 °F20.7 °F74 %30.27 in1.5 miNNE (20°)20.7 mph25.3 mph0.00 inSnowLight Snow
12:06 PM28.4 °F21.2 °F74 %30.26 in1.8 miNNE (20°)25.3 mph29.9 mphSnowLight Snow
12:08 PM28.4 °F21.2 °F74 %30.26 in1.2 miNNE (20°)20.7 mph29.9 mphSnowLight Snow
12:12 PM28.4 °F23.0 °F80 %30.27 in1.2 miNNE (20°)20.7 mph29.9 mphSnowLight Snow
12:15 PM28.4 °F23.0 °F80 %30.27 in1.5 miNNE (30°)17.3 mph28.8 mphSnowLight Snow
12:17 PM28.4 °F23.0 °F80 %30.27 in2.0 miNNE (30°)19.6 mph28.8 mphSnowLight Snow
12:19 PM28.4 °F23.0 °F80 %30.27 in3.0 miNNE (30°)17.3 mph28.8 mphSnowLight Snow
12:23 PM26.6 °F23.0 °F86 %30.27 in4.0 miNNE (30°)19.6 mphSnowLight Snow
12:31 PM26.6 °F23.0 °F86 %30.28 in2.5 miNNE (20°)19.6 mphSnowLight Snow
12:36 PM26.6 °F23.0 °F86 %30.28 in1.8 miNNE (30°)17.3 mphSnowLight Snow
12:41 PM26.6 °F23.0 °F86 %30.28 in1.2 miNNE (30°)18.4 mphSnowLight Snow
12:43 PM26.6 °F21.2 °F80 %30.28 in1.5 miNNE (30°)17.3 mphSnowLight Snow
12:46 PM26.6 °F21.2 °F80 %30.28 in2.0 miNNE (20°)16.1 mphSnowLight Snow
12:49 PM28.4 °F19.4 °F69 %30.28 in3.0 miNNE (20°)19.6 mph23.0 mphHaze
12:55 PM27.7 °F20.1 °F73 %30.29 in5.0 miNNE (20°)21.9 mph0.00 inHaze
1:55 PM26.4 °F17.6 °F69 %30.30 in10.0 miNNE (30°)24.2 mphMostly Cloudy
2:55 PM25.7 °F11.5 °F55 %30.31 in10.0 miNNE (20°)21.9 mphClear
3:55 PM26.2 °F9.5 °F49 %30.35 in10.0 miNNE (20°)23.0 mphPartly Cloudy
4:55 PM25.3 °F6.3 °F44 %30.37 in10.0 miNNE (20°)18.4 mph25.3 mphClear
5:55 PM21.4 °F5.9 °F51 %30.40 in10.0 miNorth (10°)12.7 mphClear
6:55 PM19.4 °F3.4 °F50 %30.44 in10.0 miNorth (10°)15.0 mphClear
7:55 PM18.1 °F3.7 °F53 %30.48 in10.0 miNorth (10°)6.9 mphClear
8:55 PM16.3 °F4.1 °F59 %30.50 in10.0 miNNE (20°)11.5 mphClear
9:55 PM17.8 °F5.4 °F58 %30.49 in10.0 miENE (60°)8.1 mphScattered Clouds
10:55 PM16.9 °F5.2 °F60 %30.48 in10.0 miENE (70°)4.6 mphClear
11:55 PM16.3 °F5.9 °F64 %30.47 in10.0 miEast (90°)5.8 mphMostly Cloudy
Hourly data recorded from KIAB, located miles away from Derby, Kansas







STORIES FROM OUR PARTNERS